www.pogodaiklimat.ru

Погода и климат >> Архив погоды >> Беларусь >> Ганцевичи


ПОГОДА в Ганцевичах

  • Прогноз погоды в Ганцевичах
  • Монитор погоды в Ганцевичах
  • Климат города

АРХИВ ПОГОДЫ в Ганцевичах

Время (UTC), дата Ветер
(напр.,м/с)
 
Видим.   Явления Облачность Т
(С)
Тd
(С)
f
(%)
Тe
(С)
Тes
(С)
Комфортность P
(гПа)
Po
(гПа)
Тmin
(С)
Tmax
(С)
R
(мм)
R24
(мм)
S
(см)
18 10.11 Ю 2 6000 м дымка 10 баллов +5.9 +4.5 91 +3 +3 1012.0 992.7 +6.4 0.5
21 10.11 Ю 3 6000 м н/о +6.5 +5.5 93 +3 +3 1010.0 990.8
00 11.11 Ю 3 9000 м н/о +6.5 +4.8 89 +3 +3 1008.0 988.9
03 11.11 Ю 3 10 км н/о +6.4 +4.4 87 +3 +3 1005.0 985.9 +5.9
06 11.11 ЮЗ 4 4000 м ливневой дождь 10 баллов +5.5 +4.5 93 +1 +1 1004.0 984.9 +5.5 1
09 11.11 ЮЗ 4 4500 м ливневой дождь 10 баллов +5.7 +4.2 90 +2 +2 1004.0 984.9
12 11.11 ЮЗ 3 10 км 6 баллов +5.9 +2.7 80 +3 +3 1004.0 984.9
15 11.11 ЮЗ 3 6000 м ливневой дождь 10 баллов +3.5 +1.9 89 -0 -0 1005.0 985.7
18 11.11 ЮЗ 2 4000 м ливневой дождь 10 баллов +2.0 +1.3 95 -1 -1 1005.0 985.6 +7.2 2
21 11.11 ЮЗ 2 10 км н/о +0.9 +0.3 96 -3 -3 1005.0 985.5
00 12.11 ЮЗ 3 10 км н/о +1.0 +0.4 96 -4 -4 1004.0 984.5
03 12.11 Ю 3 10 км н/о +1.9 +1.3 96 -3 -3 1003.0 983.6 +0.6
06 12.11 Ю 2 4500 м дымка 10 баллов +1.6 +1.0 96 -2 -2 1003.0 983.6 +0.6
09 12.11 ЮЗ 2 6000 м дымка 10 баллов +2.9 +1.4 90 -0 -0 1004.0 984.7
12 12.11 ЮЗ 2 6000 м дымка 10 баллов +4.0 +1.5 84 +1 +1 1004.0 984.8
15 12.11 ЮЗ 2 6000 м дымка 10 баллов +3.7 +1.7 87 +1 +1 1005.0 985.7
18 12.11 ЮЗ 2 6000 м дымка 10 баллов +3.4 +0.3 80 +1 +1 1007.0 987.7 +4.8
21 12.11 Ю 1 10 км н/о +3.1 -0.2 79 +2 +2 1008.0 988.6
00 13.11 Ю 1 10 км н/о +2.7 -1.1 76 +1 +1 1008.0 988.6
03 13.11 ЮВ 2 10 км н/о +1.1 +0.1 93 -2 -2 1008.0 988.5 +0.9
06 13.11 ЮВ 3 6000 м дымка 10 баллов +1.2 -0.4 89 -3 -3 1008.0 988.5 +0.8
09 13.11 ЮВ 3 4200 м ливневой дождь 10 баллов +1.5 +0.6 94 -3 -3 1008.0 988.5
12 13.11 ЮВ 3 3800 м ливневой дождь 10 баллов +2.4 +2.1 98 -2 -2 1006.0 986.6
15 13.11 ЮВ 2 2500 м дымка 10 баллов +3.1 +3.0 99 -0 -0 1006.0 986.7
18 13.11 штиль 0 2200 м ливневой дождь 10 баллов +3.6 +3.5 99 +2 +2 1006.0 986.7 +3.6 4
21 13.11 З 2 10 км н/о +2.1 +1.5 96 -1 -1 1008.0 988.5
00 14.11 СЗ 4 10 км н/о +1.3 +0.3 93 -4 -4 1010.0 990.5
03 14.11 СЗ 3 10 км н/о +1.3 +0.4 94 -3 -3 1013.0 993.4 +1.1
06 14.11 СЗ 3 4500 м дымка 10 баллов +1.3 +0.1 92 -3 -3 1016.0 996.3 +1.1 3
09 14.11 ЮЗ 3 6000 м дымка 10 баллов +2.9 +1.0 87 -1 -1 1018.0 998.4
12 14.11 З 2 6000 м дымка 10 баллов +3.8 +1.5 85 +1 +1 1019.0 999.5
15 14.11 штиль 0 6000 м дымка 10 баллов +3.7 +1.4 85 +3 +3 1021.0 1001.4
18 14.11 ЮЗ 1 4000 м дымка 10 баллов +2.5 +1.9 96 +1 +1 1022.0 1002.3 +4.4
21 14.11 ЮЗ 2 10 км н/о +2.5 +0.9 89 -1 -1 1023.0 1003.3
00 15.11 ЮЗ 2 10 км н/о +1.5 -0.6 86 -2 -2 1023.0 1003.2
03 15.11 ЮЗ 3 10 км н/о +1.2 -0.9 86 -3 -3 1023.0 1003.2 +1.1
06 15.11 ЮЗ 3 5000 м дымка 10 баллов +1.4 -0.4 88 -3 -3 1023.0 1003.2 +1.0
09 15.11 ЮЗ 4 5000 м дымка 10 баллов +2.8 +0.9 87 -2 -2 1024.0 1004.3
12 15.11 ЮЗ 3 5000 м дымка 10 баллов +3.8 +2.0 88 -0 -0 1024.0 1004.4
15 15.11 ЮЗ 3 4500 м ливневой дождь 10 баллов +3.8 +2.9 94 -0 -0 1024.0 1004.4
18 15.11 ЮЗ 3 4500 м дымка 10 баллов +3.7 +2.5 92 -0 -0 1025.0 1005.3 +4.0 0.3
21 15.11 ЮЗ 2 10 км н/о +3.9 +2.6 91 +1 +1 1025.0 1005.4
00 16.11 ЮЗ 2 10 км н/о +4.0 +2.7 91 +1 +1 1025.0 1005.4
03 16.11 ЮЗ 3 10 км н/о +4.2 +2.9 91 0 0 1025.0 1005.4 +3.7
06 16.11 ЮЗ 2 5000 м дымка 10 баллов +4.2 +3.2 93 +1 +1 1026.0 1006.4 +3.7
09 16.11 З 2 6000 м дымка 10 баллов +5.7 +3.7 87 +3 +3 1027.0 1007.4
12 16.11 З 2 10 км 10 баллов +6.3 +3.3 81 +4 +4 1027.0 1007.5
15 16.11 ЮЗ 1 6000 м дымка 10 баллов +4.8 +3.0 88 +3 +3 1027.0 1007.4
18 16.11 ЮЗ 1 6000 м дымка 10 баллов +4.2 +3.0 92 +3 +3 1027.0 1007.3 +6.6
21 16.11 штиль 0 1700 м н/о +0.5 +0.4 99 -1 -1 1027.0 1007.1
00 17.11 штиль 0 200 м н/о -0.4 -0.4 100 -2 -2 1027.0 1007.0
03 17.11 штиль 0 4700 м н/о +0.4 +0.4 100 -1 -1 1025.0 1005.1 -0.9
06 17.11 Ю 1 3400 м дымка 10 баллов +1.2 +1.2 100 -1 -1 1024.0 1004.2 -0.9
09 17.11 Ю 1 4000 м дымка 10 баллов +2.7 +1.4 91 +1 +1 1024.0 1004.3
12 17.11 Ю 1 10 км 10 баллов +3.4 +0.3 80 +2 +2 1022.0 1002.4
15 17.11 штиль 0 4500 м дымка 10 баллов +1.4 -0.7 86 0 0 1022.0 1002.2

 

Местоположение метеостанции Ганцевичи (Брестская область, Беларусь): широта 52.75 долгота 26.44 высота над уровнем моря 157 м.

В архиве по умолчанию представлена погода в Ганцевичах за последнюю неделю. Архивные данные за месяц целиком и за предыдущие месяцы, начиная с января 2011 года, Вы можете получить, выбрав интересующий диапазон дат из раскрывающегося списка и нажав кнопку "Ввод!".

Внимание! Время в таблицах - всемирное. Для получения местного времени необходимо прибавить поправку, которая в Ганцевичах равна 3 ч.

Смотрите также архив погоды в соседних городах и на ближайших метеорологических станциях:

Погода в Барановичах (Брестская область, Беларусь) (53 км)
Погода в Полесской (Брестская область, Беларусь) (53 км)
Погода в Ивацевичах (Брестская область, Беларусь) (73 км)
Погода в Пинске (Брестская область, Беларусь) (75 км)
Погода в Слуцке (Минская область, Беларусь) (81 км)
Погода в Столбцах (Минская область, Беларусь) (83 км)
Погода в Новогрудке (Гродненская область, Беларусь) (102 км)
Погода в Житковичах (Гомельская область, Беларусь) (113 км)
Погода в Пружанах (Брестская область, Беларусь) (133 км)
Погода в Марьиной Горке (Минская область, Беларусь) (137 км)

Пояснения к столбцам:

Ветер - указаны скорость ветра в м/с - средняя за 10 мин, порывы в срок и между сроками (в фигурных скобках) и направление, откуда дует ветер: С - северный, СВ - северо-восточный, В - восточный, ЮВ - юго-восточный, Ю - южный, ЮЗ - юго-западный, З - западный, СЗ - северо-западный.
Видимость - горизонтальная дальность видимости в метрах или километрах. При видимости от 1 до 10 км при отсутствии осадков обычно наблюдается дымка, при ухудшении видимости до 1 км и менее - туман. В сухую погоду видимость может ухудшаться дымом, пылью или мглою.
Явления - указаны атмосферные явления, наблюдавшиеся в срок или в последний час перед сроком; фигурными скобками обозначены явления, наблюдавшиеся между сроками (за 1-3 часа до срока); квадратными скобками обозначены град или гололедные отложения с указанием их диаметра в мм.
Облачность - указаны через наклонную черту общая и нижняя облачность в баллах и высота нижней границы облаков в метрах; квадратными скобками обозначены формы облаков: Ci - перистые, Cs - перисто-слоистые, Cc - перисто-кучевые, Ac - высококучевые, As - высокослоистые, Sc - слоисто-кучевые, Ns - слоисто-дождевые, Cu - кучевые, Cb - кучево-дождевые. Подробнее классификацию облаков см. в Атласе облаков (PDF).
T - Температура воздуха - температура, измеренная на высоте 2 м над землей.
Td - Температура точки росы - температура, при понижении до которой содержащийся в воздухе водяной пар достигнет насыщения.
f - Относительная влажность воздуха - влажноcть воздуха, измеренная на высоте 2 м над землей.
Te - Эффективная температура - температура, которую ощущает одетый по сезону человек в тени. Характеристика душности погоды. При расчете учитывается влияние влажности воздуха и скорости ветра на теплоощущения человека.
Tes - Эффективная температура на солнце - температура, которую ощущает человек, с поправкой на солнечный нагрев. Характеристика знойности погоды. Зависит от высоты солнца над горизонтом, облачности и скорости ветра. Ночью, в пасмурную погоду, а также при ветре 12 м/с и более поправка равна нулю.
P - Атмосферное давление - приведенное к уровню моря атмосферное давление.
Po - Атмосферное давление - измеренное на уровне метеостанции атмосферное давление.
Tmin - Минимальная температура - минимум температуры воздуха на высоте 2 м над землей.
Tmax - Максимальная температура - максимум температуры воздуха на высоте 2 м над землей.
R - Количество осадков - Количество выпавших осадков за период времени, мм. При наведении курсора мыши на число - период времени, за который выпало указанное количество осадков.
R24 - Количество осадков - Количество выпавших осадков за 24 часа, мм.
S - Снежный покров - Высота снежного покрова, см. При наведении курсора мыши на число - состояние снежного покрова и степень покрытия местности в баллах.